Regional Weather Roundup
Issued by NWS

Home | Current Version | Previous Version | Graphics & Text | Print | Product List | Glossary On
Versions: 1 2 3 4 5 6 7 8 9 10 11 12 13 14 15 16 17 18 19 20 21 22 23 24 25 26 27 28 29 30 31 32 33 34 35 36 37 38 39 40 41 42 43 44 45 46 47 48 49 50
472
ASUS44 KLIX 252311
RWRLA
LOUISIANA WEATHER ROUNDUP
NATIONAL WEATHER SERVICE NEW ORLEANS LA
600 PM CDT WED MAR 25 2015

NOTE: "FAIR" INDICATES FEW OR NO CLOUDS BELOW 12,000 FEET WITH NO
      SIGNIFICANT WEATHER AND/OR OBSTRUCTIONS TO VISIBILITY.
      SKY/WX - SKY CONDITION AND SIGNIFICANT WEATHER.
      TMP - AIR TEMPERATURE.    DP   - DEWPOINT TEMPERATURE.
      RH  - RELATIVE HUMIDITY.  PRES - PRESSURE.
      HX  - HEAT INDEX.         WCI  - WIND CHILL INDEX.

*  THESE STATIONS ARE NOT NWS OR FAA STATIONS AND ARE NOT UNDER
   NWS QUALITY CONTROL.

LAZ040-048-061>063-065-066-069-260000-
SOUTHEAST LOUISIANA

CITY           SKY/WX    TMP DP  RH WIND       PRES   REMARKS
N.O. AUDUBON   NOT AVBL
N.O. INTL ARPT CLOUDY    75  56  51 S9        29.99F
N.O. LAKEFRONT FAIR      77  56  48 S10       30.00F
SLIDELL        FAIR      75  59  57 S8        30.00S
BATON ROUGE    FAIR      76  57  51 SE8       29.98S
BOOTHVILLE     FAIR      74  62  66 E7        30.01F
BELLE CHASSE   PTSUNNY   75  57  53 SE8       29.99F
BOGALUSA*        N/A     78  57  47 S8        30.00S
GALLIANO*      FAIR      76  59  56 SE3       30.01S
NEW ROADS*     FAIR      76  55  48 SE8       29.97F
GONZALES*      FAIR      76  56  48 SE6       29.98S
HAMMOND*       FAIR      77  54  44 S6        30.01S
HOUMA*         MOSUNNY   75  61  60 SE9       29.99
PORT FOURCHON* CLEAR     73  64  73 SE13      30.03S

$$

LAZ041-044-053-054-260000-
SOUTHWEST LOUISIANA

CITY           SKY/WX    TMP DP  RH WIND       PRES   REMARKS
LAKE CHARLES   FAIR      73  59  61 S9        29.96S
LAFAYETTE      FAIR      76  58  53 S12       29.97S
PATTERSON      FAIR      75  57  53 S10       29.99S
SALT POINT       N/A     71  60  68 VRB3      29.97F
NEW IBERIA     FAIR      76  52  43 S14       29.98S
CHENAULT AIRPK PTSUNNY   73  61  64 S12       29.97S

$$

LAZ027-028-260000-
CENTRAL LOUISIANA

CITY           SKY/WX    TMP DP  RH WIND       PRES   REMARKS
FORT POLK      FAIR      76  57  51 SE14      29.92F
ALEXANDRIA INT FAIR      75  56  51 S14       29.92F
ALEXANDRIA     FAIR      77  56  48 S9        29.94F

$$

LAZ001-002-260000-
NORTHWEST LOUISIANA

CITY           SKY/WX    TMP DP  RH WIND       PRES   REMARKS
SHREVEPORT     FAIR      81  56  42 S14G23    29.87F
BARKSDALE AFB  FAIR      78  58  49 SE13      29.87F
DTN SHREVEPORT FAIR      77  57  50 SE16      29.87F

$$

LAZ014-016-260000-
NORTHEAST LOUISIANA

CITY           SKY/WX    TMP DP  RH WIND       PRES   REMARKS
MONROE         FAIR      76  57  51 SE9G20    29.93F
TALLULAH       FAIR      78  56  46 S12       29.94F

$$




USA.gov is the U.S. government's official web portal to all federal, state and local government web resources and services.